Starlink 4599

operational
NORAD ID: 53631 Int'l Des: 2022-104 Owner: SPXS Country: US Constellation: starlink
LEOCIRCULAR

Starlink 4599について

説明を読み込み中...

リアルタイム位置

3D地球を読み込み中...

次回通過

高度履歴

Altitude vs Time

uPlot chart will show altitude changes over time

軌道要素

1 53631U 22104AV 26061.28332051 .00000954 00000-0 78048-4 0 9995
2 53631 53.2161 266.8964 0001425 91.2442 268.8713 15.08839921194648
Epoch: Mar 2, 2026 • Age: 29 hours

現在のステータス

高度 556.4 km
速度 7.58 km/s
衛星直下点 -46.38°S, 95.04°W
打ち上げ日 Aug 28, 2022
運用期間 3.5 years
タイプ internet

技術仕様

分類 Payload
質量 300.00 kg
乾燥質量 290.00 kg
総質量 300.00 kg
長さ 0.20 m
直径 2.80 m
スパン 9.00 m
形状 Box + pan
製造者 SPXS
バスタイプ Starlink
フェーズステータス In Orbit
所有者/国 SPXS/US

大規模コンステレーション

Loading constellations...